NOAA 17 DEB

Satellite information

Favourite Embed

Satellite Type and Status

DEBRISIN ORBIT

Key statistics

Satellite NOAA 17 DEB at a glance.

Uptime

8574

Days in orbit

Revolutions

≈ 14.8

Per day

Orbit

SSO

Sun Synchronous Orbit

Inclination

98.8

Latest

Satellite identification and parameters

Extended collection of information and parameters for NOAA 17 DEB.

Object identification

Identified? True

Debris? True

Object name: NOAA 17 DEB

International designator: 2002-032AQ

Object number (NORAD): 48707

Object ID (CCSDS): 48707

Country: UNITED STATES OF AMERICA (US)

Current information (Y/N): Y

RCS size: SMALL

Orbital parameters

Period: 97.62 minutes

Inclination: 98.7846 deg

SMA: 7022.965 km

Apoapsis: 671.904 km

Periapsis: 617.755 km

RAAN: 33.0637 deg

Eccentricy: 0.00385515

Argument of periapsis: 167.7007 deg

Mean anomaly: 192.515 deg

Mean motion: 14.75101877 rev/day

Mean motion (dot): 0.00029154 rev/day2

B* drag term: 0.0042639645 1/REarth

Two-line elements (TLE)

Creation date: Dec. 11, 2025, 7:14 p.m.

Reference frame: TEME

Reference center: EARTH

Epoch: Dec. 11, 2025, 8:39 a.m. UTC

TLE line 0: 0 NOAA 17 DEB

TLE line 1: 1 48707U 02032AQ 25345.36105898 .00029154 00000-0 42640-2 0 9991

TLE line 2: 2 48707 98.7846 33.0637 0038552 167.7007 192.5150 14.75101877251140

Live tracking on map

Real-time ground track for satellite NOAA 17 DEB.

In-orbit conjunctions

A list of the most updated potential collisions computed for object NOAA 17 DEB.

Target Orbit TCA Probability of collision Miss distance Type
SL-14 R/B LEO 2025-11-06 06:09:57 0.0001013913 92.0 (m) ROCKET BODY
PARASOL SSO 2025-02-02 09:53:07 0.0001044954 495.0 (m) PAYLOAD
COSMOS 2251 DEB LEO 2024-11-14 13:37:08 0.000153837 923.0 (m) DEBRIS

Associated space launch

NOAA M carried weather imagers and microwave and infrared sounders, as well as a SARSAT search-and-rescue package. It had an on-orbit mass of 1475 kg.

NOAA 17 DEB was lifted into orbit during the mission ‘Titan II SLV | NOAA 17’, on board a Titan II SLV space rocket.

The launch took place on June 24, 2002, 6:23 p.m. from Space Launch Complex 4W.

For more information about the launch, click the button.

Launch to space Titan II SLV | NOAA 17
Titan II SLV | NOAA 17

Agency: N/A

Status: Launch Successful

Launch date: June 24, 2002, 6:23 p.m. UTC

Rocket: Titan II SLV

Launch pad: Space Launch Complex 4W

Location: Vandenberg SFB, CA, USA

...

Latest news about this satellite

There are no fresh news available about this satellite. Check back as we update our databases every day.


Newsletter sign-up

Weekly statistics, charts and insights to help you stay on top of the space industry.